{"data":{"norad_id":67965,"intl_designator":"2026-038E","name":"STARLINK-36806","alt_names":[],"object_type":"PAYLOAD","status":"ACTIVE","operator":null,"country":"US","launch_date":"2026-02-25","launch_site_code":"AFWTR","launch_vehicle":null,"mission":null,"orbit_class":"UNKNOWN","rcs_meters":null,"size_class":null,"mass_kg":null,"dimensions":null,"purposes":["comms"],"wikipedia_slug":null,"has_3d_model":false,"image_url":null,"decayed_at":null,"tle_current":{"epoch":"2026-09-19T14:32:26.154528Z","epoch_age_seconds":140463,"freshness":"FRESH","line1":"1 67965U 26038E   26262.60585827  .00019950  00000+0  61850-3 0  9997","line2":"2 67965  97.2845 270.9178 0002519  74.2369 285.9151 15.33450741 32955","mean_motion":15.33450741,"eccentricity":0.0002519,"inclination_deg":97.2845,"raan_deg":270.9178,"arg_perigee_deg":74.2369,"mean_anomaly_deg":285.9151,"bstar":0.0006185,"rev_number":3295,"period_min":93.905853086676,"perigee_km":463.80217462134,"apogee_km":467.25001208778,"semimajor_km":6843.6630933546,"source":"CELESTRAK","updated_at":"2026-09-20T09:00:43.714005Z"}}}